TimeMST,TemperatureF,Dew PointF,Humidity,Sea Level PressureIn,VisibilityMPH,Wind Direction,Wind SpeedMPH,Gust SpeedMPH,PrecipitationIn,Events,Conditions,WindDirDegrees,DateUTC
12:53 AM,35.1,10.9,37,30.12,10.0,ENE,4.6,-,N/A,,Clear,70,2012-11-07 07:53:00
1:53 AM,28.9,9.0,43,30.14,10.0,Calm,Calm,-,N/A,,Clear,0,2012-11-07 08:53:00
2:53 AM,28.9,9.0,43,30.12,10.0,East,3.5,-,N/A,,Clear,80,2012-11-07 09:53:00
3:53 AM,25.0,10.0,53,30.15,10.0,Calm,Calm,-,N/A,,Clear,0,2012-11-07 10:53:00
4:53 AM,21.9,6.1,51,30.20,10.0,Calm,Calm,-,N/A,,Clear,0,2012-11-07 11:53:00
5:53 AM,23.0,5.0,46,30.26,10.0,NE,3.5,-,N/A,,Clear,50,2012-11-07 12:53:00
6:53 AM,21.0,6.1,53,30.32,10.0,Calm,Calm,-,N/A,,Clear,0,2012-11-07 13:53:00
7:53 AM,30.9,9.0,40,30.32,10.0,Calm,Calm,-,N/A,,Clear,0,2012-11-07 14:53:00
8:53 AM,42.1,14.0,32,30.28,10.0,Calm,Calm,-,N/A,,Clear,0,2012-11-07 15:53:00
9:53 AM,50.0,17.1,27,30.19,10.0,Calm,Calm,-,N/A,,Clear,0,2012-11-07 16:53:00
10:53 AM,57.0,18.0,22,30.15,10.0,West,3.5,-,N/A,,Clear,280,2012-11-07 17:53:00
11:53 AM,66.0,12.0,12,30.07,10.0,WSW,10.4,-,N/A,,Clear,240,2012-11-07 18:53:00
12:53 PM,70.0,15.1,12,29.96,10.0,SW,13.8,18.4,N/A,,Clear,220,2012-11-07 19:53:00
1:53 PM,70.0,16.0,13,29.98,10.0,WSW,8.1,20.7,N/A,,Clear,250,2012-11-07 20:53:00
2:53 PM,70.0,15.1,12,29.97,10.0,WSW,12.7,-,N/A,,Clear,250,2012-11-07 21:53:00
3:53 PM,69.1,12.0,11,30.00,10.0,WSW,13.8,-,N/A,,Clear,250,2012-11-07 22:53:00
4:53 PM,64.9,12.0,13,30.04,10.0,WSW,9.2,-,N/A,,Clear,250,2012-11-07 23:53:00
5:53 PM,54.0,10.9,18,30.12,10.0,SSW,5.8,-,N/A,,Clear,200,2012-11-08 00:53:00
6:53 PM,46.9,8.1,21,30.19,10.0,Calm,Calm,-,N/A,,Clear,0,2012-11-08 01:53:00
7:53 PM,41.0,8.1,26,30.17,10.0,ENE,3.5,-,N/A,,Clear,70,2012-11-08 02:53:00
8:53 PM,39.9,9.0,28,30.10,10.0,Calm,Calm,-,N/A,,Clear,0,2012-11-08 03:53:00
9:53 PM,35.1,8.1,33,30.08,10.0,Calm,Calm,-,N/A,,Clear,0,2012-11-08 04:53:00
10:53 PM,28.9,3.0,33,30.07,10.0,East,3.5,-,N/A,,Clear,80,2012-11-08 05:53:00